• In Deutschland
  • Länderverzeichnis
  • Für 7 Tage
  • Wassertemperatur
  • Satellitenkarten
  • Wetterkarte
  • Widgets
  • user-avatar
    Anmelden

    Stündliche Wetter Sankt Pölten

    Heute, 18 Januar, Donnerstag

    Zeit Temperatur Niederschläge Wind Luftdruck Luftfeuchtigkeit
    00:00 -2°C° 0,2 mm 6 m/S 730 mmHg 81%
    01:00 -1°C° 0 mm 5 m/S 730 mmHg 81%
    02:00 -1°C° 0 mm 5 m/S 731 mmHg 82%
    03:00 -1°C° 0 mm 5 m/S 731 mmHg 83%
    04:00 -1°C° 0 mm 5 m/S 731 mmHg 83%
    05:00 -1°C° 0 mm 5 m/S 731 mmHg 84%
    06:00 -1°C° 0 mm 4 m/S 731 mmHg 85%
    07:00 -1°C° 0 mm 3 m/S 731 mmHg 88%
    08:00 0°C° 0,1 mm 3 m/S 731 mmHg 86%
    09:00 +1°C° 0,1 mm 3 m/S 730 mmHg 83%
    10:00 +2°C° 0,1 mm 3 m/S 730 mmHg 81%
    11:00 +2°C° 0,2 mm 3 m/S 729 mmHg 80%
    12:00 +3°C° 0,2 mm 3 m/S 728 mmHg 79%
    13:00 +3°C° 0,2 mm 4 m/S 728 mmHg 78%
    14:00 +3°C° 0,1 mm 3 m/S 727 mmHg 79%
    15:00 +3°C° 0,1 mm 3 m/S 726 mmHg 79%
    16:00 +3°C° 0,1 mm 3 m/S 725 mmHg 80%
    17:00 +3°C° 0,2 mm 3 m/S 725 mmHg 80%
    18:00 +3°C° 0,2 mm 4 m/S 725 mmHg 79%
    19:00 +3°C° 0,2 mm 4 m/S 725 mmHg 79%
    20:00 +3°C° 0,7 mm 4 m/S 725 mmHg 81%
    21:00 +3°C° 0,7 mm 4 m/S 725 mmHg 84%
    22:00 +3°C° 0,7 mm 3 m/S 726 mmHg 86%
    23:00 +3°C° 0,5 mm 4 m/S 726 mmHg 86%

    Morgen, 19 Januar, Freitag

    Zeit Temperatur Niederschläge Wind Luftdruck Luftfeuchtigkeit
    00:00 +3°C° 0,5 mm 4 m/S 727 mmHg 85%
    01:00 +2°C° 0,5 mm 5 m/S 727 mmHg 85%
    02:00 +3°C° 0,5 mm 4 m/S 727 mmHg 86%
    03:00 +3°C° 0,5 mm 3 m/S 727 mmHg 88%
    04:00 +2°C° 0,5 mm 3 m/S 727 mmHg 89%
    05:00 +3°C° 0,8 mm 2 m/S 727 mmHg 90%
    06:00 +3°C° 0,8 mm 2 m/S 727 mmHg 91%
    07:00 +4°C° 0,8 mm 1 m/S 728 mmHg 92%
    08:00 +3°C° 0,5 mm 2 m/S 728 mmHg 91%
    09:00 +4°C° 0,5 mm 2 m/S 729 mmHg 91%
    10:00 +3°C° 0,5 mm 3 m/S 729 mmHg 91%
    11:00 +3°C° 0,1 mm 4 m/S 729 mmHg 88%
    12:00 +3°C° 0,1 mm 4 m/S 730 mmHg 85%
    13:00 +3°C° 0,1 mm 5 m/S 730 mmHg 81%
    14:00 +2°C° 0 mm 5 m/S 730 mmHg 81%
    15:00 +1°C° 0 mm 5 m/S 731 mmHg 81%
    16:00 +1°C° 0 mm 5 m/S 731 mmHg 81%
    17:00 0°C° 0 mm 4 m/S 731 mmHg 83%
    18:00 -1°C° 0 mm 4 m/S 732 mmHg 86%
    19:00 0°C° 0 mm 3 m/S 732 mmHg 88%
    20:00 -1°C° 0 mm 3 m/S 732 mmHg 89%
    21:00 -1°C° 0 mm 2 m/S 733 mmHg 90%
    22:00 -1°C° 0 mm 2 m/S 733 mmHg 91%
    23:00 -1°C° 0 mm 2 m/S 733 mmHg 91%

    übermorgen, 20 Januar, Samstag

    Zeit Temperatur Niederschläge Wind Luftdruck Luftfeuchtigkeit
    00:00 -1°C° 0 mm 2 m/S 733 mmHg 91%
    01:00 -1°C° 0 mm 2 m/S 733 mmHg 92%
    02:00 -1°C° 0,1 mm 2 m/S 733 mmHg 92%
    03:00 -1°C° 0,1 mm 2 m/S 733 mmHg 92%
    04:00 -1°C° 0,1 mm 2 m/S 733 mmHg 92%
    05:00 -1°C° 0,1 mm 2 m/S 733 mmHg 91%
    06:00 -1°C° 0,1 mm 2 m/S 733 mmHg 91%
    07:00 -1°C° 0,1 mm 2 m/S 733 mmHg 91%
    08:00 +1°C° 0,2 mm 2 m/S 733 mmHg 88%
    09:00 0°C° 0,2 mm 3 m/S 732 mmHg 86%
    10:00 +1°C° 0,2 mm 3 m/S 732 mmHg 83%
    11:00 +2°C° 0,1 mm 3 m/S 732 mmHg 80%
    12:00 +1°C° 0,1 mm 4 m/S 731 mmHg 76%
    13:00 +3°C° 0,1 mm 4 m/S 730 mmHg 73%
    14:00 +3°C° 0,1 mm 3 m/S 729 mmHg 76%
    15:00 +3°C° 0,1 mm 2 m/S 729 mmHg 79%
    16:00 +4°C° 0,1 mm 1 m/S 728 mmHg 83%
    17:00 +3°C° 0,1 mm 1 m/S 728 mmHg 84%
    18:00 +2°C° 0,1 mm 1 m/S 728 mmHg 85%
    19:00 +1°C° 0,1 mm 1 m/S 727 mmHg 86%
    20:00 +1°C° 0,1 mm 1 m/S 727 mmHg 87%
    21:00 +1°C° 0,1 mm 1 m/S 727 mmHg 87%
    22:00 +1°C° 0,1 mm 1 m/S 726 mmHg 88%
    23:00 +1°C° 0,7 mm 1 m/S 726 mmHg 90%

    21 Januar, Sonntag

    Zeit Temperatur Niederschläge Wind Luftdruck Luftfeuchtigkeit
    00:00 +1°C° 0,7 mm 1 m/S 727 mmHg 93%
    01:00 +1°C° 0,7 mm 1 m/S 727 mmHg 95%
    02:00 -1°C° 0,9 mm 2 m/S 728 mmHg 94%
    03:00 -2°C° 0,9 mm 4 m/S 729 mmHg 93%
    04:00 -2°C° 0,9 mm 5 m/S 730 mmHg 92%
    05:00 -2°C° 0,3 mm 4 m/S 731 mmHg 92%
    06:00 -3°C° 0,3 mm 4 m/S 732 mmHg 91%
    07:00 -3°C° 0,3 mm 4 m/S 733 mmHg 90%
    08:00 -3°C° 0,1 mm 4 m/S 734 mmHg 89%
    09:00 -3°C° 0,1 mm 4 m/S 734 mmHg 88%
    10:00 -2°C° 0,1 mm 4 m/S 735 mmHg 87%
    11:00 -2°C° 0,1 mm 4 m/S 735 mmHg 85%
    12:00 -1°C° 0,1 mm 4 m/S 736 mmHg 83%
    13:00 -1°C° 0,1 mm 4 m/S 736 mmHg 82%
    14:00 -1°C° 0,2 mm 4 m/S 736 mmHg 83%
    15:00 -1°C° 0,2 mm 4 m/S 737 mmHg 83%
    16:00 -2°C° 0,2 mm 4 m/S 737 mmHg 84%
    17:00 -2°C° 0 mm 3 m/S 738 mmHg 86%
    18:00 -4°C° 0 mm 3 m/S 738 mmHg 89%
    19:00 -4°C° 0 mm 2 m/S 739 mmHg 91%
    20:00 -4°C° 0 mm 2 m/S 739 mmHg 91%
    21:00 -5°C° 0 mm 2 m/S 739 mmHg 91%
    22:00 -3°C° 0 mm 1 m/S 739 mmHg 91%
    23:00 -3°C° 0 mm 1 m/S 739 mmHg 91%

    22 Januar, Montag

    Zeit Temperatur Niederschläge Wind Luftdruck Luftfeuchtigkeit
    00:00 -4°C° 0 mm 1 m/S 739 mmHg 90%
    01:00 -4°C° 0 mm 1 m/S 738 mmHg 89%
    02:00 -4°C° 0 mm 1 m/S 738 mmHg 88%
    03:00 -3°C° 0 mm 1 m/S 738 mmHg 86%
    04:00 -3°C° 0 mm 1 m/S 737 mmHg 85%
    05:00 -2°C° 0,1 mm 1 m/S 738 mmHg 85%
    06:00 -2°C° 0,1 mm 1 m/S 738 mmHg 85%
    07:00 -2°C° 0,1 mm 1 m/S 738 mmHg 86%
    08:00 -1°C° 0,1 mm 1 m/S 738 mmHg 85%
    09:00 0°C° 0,1 mm 1 m/S 738 mmHg 84%
    10:00 +1°C° 0,1 mm 1 m/S 739 mmHg 83%
    11:00 +2°C° 0 mm 1 m/S 739 mmHg 83%
    12:00 +3°C° 0 mm 1 m/S 739 mmHg 82%
    13:00 +3°C° 0 mm 1 m/S 739 mmHg 82%
    14:00 +3°C° 0 mm 1 m/S 739 mmHg 85%
    15:00 +3°C° 0 mm 1 m/S 739 mmHg 87%
    16:00 +3°C° 0 mm 1 m/S 739 mmHg 89%
    17:00 +3°C° 0 mm 1 m/S 739 mmHg 90%
    18:00 +3°C° 0 mm 1 m/S 740 mmHg 91%
    19:00 +3°C° 0 mm 1 m/S 740 mmHg 92%
    20:00 +3°C° 0,1 mm 1 m/S 740 mmHg 93%
    21:00 +3°C° 0,1 mm 1 m/S 740 mmHg 93%
    22:00 +4°C° 0,1 mm 1 m/S 740 mmHg 94%
    23:00 +4°C° 0,1 mm 1 m/S 740 mmHg 94%

    23 Januar, Dienstag

    Zeit Temperatur Niederschläge Wind Luftdruck Luftfeuchtigkeit
    00:00 +4°C° 0,1 mm 1 m/S 740 mmHg 95%
    01:00 +4°C° 0,1 mm 1 m/S 740 mmHg 95%
    02:00 +5°C° 0,4 mm 1 m/S 740 mmHg 96%
    03:00 +5°C° 0,4 mm 1 m/S 740 mmHg 96%
    04:00 +5°C° 0,4 mm 1 m/S 740 mmHg 96%
    05:00 +5°C° 1 mm 1 m/S 740 mmHg 97%
    06:00 +4°C° 1 mm 2 m/S 740 mmHg 97%
    07:00 +4°C° 1 mm 2 m/S 741 mmHg 97%
    08:00 +5°C° 0,2 mm 2 m/S 741 mmHg 98%
    09:00 +5°C° 0,2 mm 2 m/S 741 mmHg 98%
    10:00 +5°C° 0,2 mm 3 m/S 742 mmHg 98%
    11:00 +5°C° 0,4 mm 3 m/S 742 mmHg 97%
    12:00 +7°C° 0,4 mm 3 m/S 742 mmHg 96%
    13:00 +6°C° 0,4 mm 4 m/S 741 mmHg 96%
    14:00 +6°C° 0,1 mm 4 m/S 742 mmHg 95%
    15:00 +7°C° 0,1 mm 3 m/S 742 mmHg 95%
    16:00 +7°C° 0,1 mm 3 m/S 742 mmHg 95%
    17:00 +5°C° 0 mm 3 m/S 743 mmHg 95%
    18:00 +5°C° 0 mm 3 m/S 743 mmHg 95%
    19:00 +5°C° 0 mm 3 m/S 743 mmHg 94%
    20:00 +5°C° 0 mm 3 m/S 743 mmHg 94%
    21:00 +5°C° 0 mm 3 m/S 743 mmHg 94%
    22:00 +5°C° 0 mm 3 m/S 744 mmHg 94%
    23:00 +5°C° 0 mm 3 m/S 744 mmHg 94%
    Mehr zeigen